NU, Nunavut

4:25 AM MST on December 07, 2016 (GMT -0700)
Pincher Creek

Weather History for CZPC - March, 2013

Change the Weather History Date:

Wednesday, March 6, 2013

  Actual Average Record
Temperature  
Mean Temperature 19 °F -  
Max Temperature 24 °F 29 °F 55 °F (2005)
Min Temperature 14 °F 10 °F -13 °F (2002)
Degree Days  
Heating Degree Days 46    
Moisture  
Dew Point 19 °F    
Average Humidity 91    
Maximum Humidity 100    
Minimum Humidity 69    
Precipitation  
Precipitation 0.01 in - - ()
Sea Level Pressure  
Sea Level Pressure 29.95 in    
Wind  
Wind Speed 5 mph ()    
Max Wind Speed 9 mph    
Max Gust Speed -    
Visibility 7.7 miles    
Events Snow    
Averages and records for this station are not official NWS values.
T = Trace of Precipitation, MM = Missing Value Source: Averaged Metar Reports

Daily Weather History Graph

Daily Weather History Graph

Search for Another Location

Airport or City:

Trip Planner

Search our weather history database for the weather conditions in past years. The results will help you decide how hot, cold, wet, or windy it might be!

Date:

Astronomy

Mar. 06, 2013 Rise Set
Actual Time 7:07 AM MST 6:27 PM MST
Civil Twilight 6:35 AM MST 6:59 PM MST
Nautical Twilight 5:58 AM MST 7:36 PM MST
Astronomical Twilight 5:21 AM MST 8:14 PM MST
Moon 3:44 AM MST (3/6) 12:50 PM MST (3/6)
Length of Visible Light 12h 23m
Length of Day
11h 19m
Waning Crescent, 29% of the Moon is Illuminated
Mar 6
Waning Crescent
Mar 11
New
Mar 19
First Quarter
Mar 27
Full
Apr 2
Last Quarter

Hourly Weather History & Observations

Time (MST) Temp. Windchill Dew Point Humidity Pressure Visibility Wind Dir Wind Speed Gust Speed Precip Events Conditions
12:00 AM 17.6 °F 12.3 °F 15.8 °F 93% 30.14 in 9.0 mi West 3.5 mph - N/A   Overcast
1:00 AM 17.6 °F - 15.8 °F 93% 30.12 in 9.0 mi WNW 2.3 mph - N/A   Overcast
2:00 AM 19.4 °F - 15.8 °F 86% 30.11 in 9.0 mi Variable 2.3 mph - N/A   Overcast
3:00 AM 19.4 °F 14.3 °F 15.8 °F 86% 30.08 in 9.0 mi WSW 3.5 mph - N/A   Overcast
4:00 AM 19.4 °F - 15.8 °F 86% 30.05 in 9.0 mi Calm Calm - N/A   Overcast
5:00 AM 18 °F - 15 °F 83% 30.04 in 10 mi SW 2.3 mph - -   Overcast
5:00 AM 17.6 °F - 15.8 °F 93% 30.04 in 9.0 mi SW 2.3 mph - N/A   Overcast
6:00 AM 15.8 °F - 14.0 °F 93% 30.03 in 9.0 mi Calm Calm - N/A   Mostly Cloudy
7:00 AM 15.8 °F - 14.0 °F 93% 30.01 in 9.0 mi NNW 2.3 mph - N/A   Overcast
8:00 AM 15.8 °F 7.2 °F 14.0 °F 93% 30.00 in 9.0 mi West 5.8 mph - N/A   Mostly Cloudy
9:00 AM 17.6 °F - 15.8 °F 93% 29.98 in 9.0 mi Calm Calm - N/A   Mostly Cloudy
10:00 AM 19.4 °F - 15.8 °F 86% 29.96 in 9.0 mi WNW 2.3 mph - N/A   Overcast
11:00 AM 22 °F - 16 °F 69% 29.94 in 10 mi WSW 1.2 mph - -   Overcast
11:00 AM 21.2 °F - 15.8 °F 80% 29.94 in 9.0 mi Calm Calm - N/A   Overcast
12:00 PM 23.0 °F 14.7 °F 19.4 °F 86% 29.91 in 9.0 mi East 6.9 mph - N/A   Overcast
12:09 PM 23.0 °F 13.9 °F 19.4 °F 86% 29.91 in 9.0 mi ESE 8.1 mph - N/A   Overcast
1:00 PM 23.0 °F 13.1 °F 19.4 °F 86% 29.91 in 9.0 mi East 9.2 mph - N/A   Overcast
1:31 PM 23.0 °F 13.1 °F 19.4 °F 86% 29.90 in 9.0 mi East 9.2 mph - N/A Snow Light Snow
1:40 PM 23.0 °F 14.7 °F 19.4 °F 86% 29.89 in 9.0 mi East 6.9 mph - N/A   Overcast
2:00 PM 24.8 °F 16.9 °F 19.4 °F 80% 29.88 in 9.0 mi ENE 6.9 mph - N/A   Overcast
2:36 PM 23.0 °F 15.8 °F 19.4 °F 86% 29.88 in 9.0 mi East 5.8 mph - N/A Snow Light Snow
3:00 PM 23.0 °F 13.9 °F 19.4 °F 86% 29.89 in 6.0 mi East 8.1 mph - N/A Snow Light Snow
3:01 PM 23.0 °F 13.1 °F 19.4 °F 86% 29.89 in 5.0 mi East 9.2 mph - N/A Snow Light Snow
3:07 PM 23.0 °F 13.1 °F 19.4 °F 86% 29.89 in 2.5 mi East 9.2 mph - N/A Snow Light Snow
4:00 PM 23.0 °F 13.9 °F 21.2 °F 93% 29.90 in 0.6 mi East 8.1 mph - N/A Snow Light Snow
4:12 PM 23.0 °F 13.9 °F 21.2 °F 93% 29.89 in 0.8 mi East 8.1 mph - N/A Snow Light Snow
4:44 PM 23.0 °F 13.1 °F 19.4 °F 86% 29.91 in 3.0 mi East 9.2 mph - N/A Snow Light Snow
4:48 PM 23.0 °F 13.1 °F 19.4 °F 86% 29.91 in 4.0 mi East 9.2 mph - N/A Snow Light Snow
4:51 PM 23.0 °F 13.9 °F 19.4 °F 86% 29.91 in 6.0 mi East 8.1 mph - N/A Snow Light Snow
5:00 PM 22 °F - 20 °F 90% 29.91 in 7 mi East 6.9 mph - - Snow Light Snow
5:00 PM 23.0 °F 14.7 °F 19.4 °F 86% 29.91 in 8.0 mi East 6.9 mph - N/A Snow Light Snow
5:05 PM 21.2 °F 11.7 °F 19.4 °F 93% 29.91 in 8.0 mi East 8.1 mph - N/A Snow Light Snow
5:15 PM 21.2 °F 10.9 °F 19.4 °F 93% 29.91 in 5.0 mi East 9.2 mph - N/A Snow Light Snow
5:24 PM 21.2 °F 10.9 °F 19.4 °F 93% 29.91 in 2.5 mi East 9.2 mph - N/A Snow Light Snow
5:28 PM 21.2 °F 12.6 °F 21.2 °F 100% 29.91 in 2.2 mi East 6.9 mph - N/A Snow Light Snow
5:35 PM 21.2 °F 10.9 °F 19.4 °F 93% 29.92 in 3.0 mi East 9.2 mph - N/A Snow Light Snow
5:41 PM 21.2 °F 11.7 °F 19.4 °F 93% 29.92 in 5.0 mi East 8.1 mph - N/A Snow Light Snow
5:48 PM 21.2 °F 10.9 °F 19.4 °F 93% 29.92 in 6.0 mi East 9.2 mph - N/A Snow Light Snow
6:00 PM 21.2 °F 12.6 °F 19.4 °F 93% 29.93 in 7.0 mi East 6.9 mph - N/A Snow Light Snow
6:30 PM 21.2 °F 12.6 °F 19.4 °F 93% 29.93 in 7.0 mi East 6.9 mph - N/A Snow Light Snow
6:43 PM 21.2 °F 11.7 °F 19.4 °F 93% 29.94 in 7.0 mi East 8.1 mph - N/A Snow Light Snow
6:49 PM 21.2 °F 10.9 °F 19.4 °F 93% 29.94 in 9.0 mi East 9.2 mph - N/A Snow Light Snow
7:00 PM 21.2 °F 11.7 °F 19.4 °F 93% 29.95 in 9.0 mi East 8.1 mph - N/A Snow Light Snow
7:42 PM 21.2 °F 12.6 °F 19.4 °F 93% 29.95 in 9.0 mi East 6.9 mph - N/A   Overcast
7:52 PM 21.2 °F 13.6 °F 19.4 °F 93% 29.95 in 9.0 mi ESE 5.8 mph - N/A   Overcast
8:00 PM 21.2 °F 13.6 °F 19.4 °F 93% 29.95 in 9.0 mi ESE 5.8 mph - N/A   Overcast
8:19 PM 21.2 °F 12.6 °F 19.4 °F 93% 29.96 in 9.0 mi SE 6.9 mph - N/A Snow Light Snow
9:00 PM 21.2 °F 13.6 °F 19.4 °F 93% 29.95 in 9.0 mi ESE 5.8 mph - N/A Snow Light Snow
9:28 PM 21.2 °F 12.6 °F 19.4 °F 93% 29.97 in 9.0 mi SE 6.9 mph - N/A Snow Light Snow
9:32 PM 21.2 °F 12.6 °F 19.4 °F 93% 29.97 in 9.0 mi ESE 6.9 mph - N/A   Overcast
9:45 PM 19.4 °F 9.5 °F 19.4 °F 100% 29.97 in 9.0 mi ESE 8.1 mph - N/A   Overcast
10:00 PM 19.4 °F 10.4 °F 19.4 °F 100% 29.97 in 9.0 mi ESE 6.9 mph - N/A   Overcast
10:04 PM 19.4 °F 11.5 °F 19.4 °F 100% 29.97 in 9.0 mi ESE 5.8 mph - N/A Snow Light Snow
10:05 PM 19.4 °F 11.5 °F 19.4 °F 100% 29.97 in 9.0 mi SE 5.8 mph - N/A Snow Light Snow
10:19 PM 19.4 °F 11.5 °F 19.4 °F 100% 29.97 in 9.0 mi SE 5.8 mph - N/A   Overcast
11:00 PM 20 °F - 18 °F 91% 29.98 in 10 mi SSE 4.6 mph - -   Overcast
11:00 PM 19.4 °F 14.3 °F 19.4 °F 100% 29.97 in 9.0 mi SSE 3.5 mph - N/A   Overcast
11:15 PM 19.4 °F 12.8 °F 19.4 °F 100% 29.97 in 9.0 mi SE 4.6 mph - N/A   Overcast
11:35 PM 19.4 °F 11.5 °F 19.4 °F 100% 29.98 in 9.0 mi SE 5.8 mph - N/A   Overcast
11:49 PM 21.2 °F 13.6 °F 19.4 °F 93% 29.98 in 9.0 mi South 5.8 mph - N/A   Overcast
11:59 PM 19.4 °F 12.8 °F 17.6 °F 93% 29.97 in 9.0 mi SE 4.6 mph - N/A   Overcast